map of AEY home
AEY - Airport
Location
City:  Akureyri, Iceland
Name:Akureyri Airport
ICAO:BIAR
IATA:AEY

Details
Type:Airport (Aerodrome, Airfield)
Latitude:6539'31"N (65.658611)
Longitude:1804'20"W (-18.072221)
Elevation:6 ft (2 m)
Variation:12.00W (WMM2015 magnetic declination)
0.27 annual change
Runways:1
Longest:6365 × 148 ft (1940 × 45 m), paved

Time
Time Zone:UTC+0
Local Time:

Weather
METAR:BIAR 160900Z 31010KT 9000 -SN BKN015 OVC022 M01/M02 Q1011
TAF:BIAR 160752Z 1609/1709 34013KT 8000 -SHSN BKN015 OVC025 TXM02/1612Z TNM10/1706Z
TEMPO 1609/1618 1500 SHSN BKN007 OVC012
BECMG 1615/1618 VRB02KT
BECMG 1623/1702 CAVOK

Related Locations
Nearby:
Farthest:NZTB: 11802 mi / 18994 km
Terra Nova Bay [Mario Zucchelli Station], AQ

Find:

   beyond  
but within

Other Information
Maps:
NOTAMs:
Links:
Sources:

  
  • flag of Iceland
  

Sectional Chart

Flight Planning
at skyvector.com

Satellite Image

Google Maps Satellite view

 

Copyright © 2004-2019 Karl L. Swartz. All rights reserved.
The Great Circle Mapper name and logo are trademarks of the Great Circle Mapper.
All other trademarks mentioned herein belong to their respective owners.
Please see credits for attibutions and further copyright information.

  Follow gcmap on Facebook Follow gcmap on Twitter Follow gcmap on Google+ GCmap on LinkedIn

hCard Microformat

Geo Microformat